This is the latest recevied weather packets stored in our database for station/object SM0UQT-10. If no packets are shown the sender has not sent any weather packets the latest 10 day(s).
| Time | Temp. | Humidity | Pressure | Rain* | Wind** | Luminosity | Snow |
|---|---|---|---|---|---|---|---|
| 1788508424 | 13.89° C | 62% | 989.3 hPa | - | - | - | - |
| 1788507524 | 13.89° C | 61% | 989.5 hPa | - | - | - | - |
| 1788506624 | 13.89° C | 62% | 989.5 hPa | - | - | - | - |
| 1788505723 | 14.44° C | 63% | 989.5 hPa | - | - | - | - |
| 1788504823 | 15° C | 66% | 989.6 hPa | - | - | - | - |
| 1788503923 | 14.44° C | 66% | 989.5 hPa | - | - | - | - |
| 1788503023 | 13.89° C | 69% | 989.8 hPa | - | - | - | - |
| 1788502123 | 12.78° C | 68% | 989.8 hPa | - | - | - | - |
| 1788501223 | 12.22° C | 66% | 989.8 hPa | - | - | - | - |
| 1788500323 | 11.67° C | 66% | 989.6 hPa | - | - | - | - |
| 1788499423 | 11.67° C | 67% | 989.7 hPa | - | - | - | - |
| 1788498523 | 11.11° C | 66% | 989.7 hPa | - | - | - | - |
| 1788497623 | 10.56° C | 66% | 989.8 hPa | - | - | - | - |
| 1788496723 | 9.44° C | 63% | 990 hPa | - | - | - | - |
| 1788495823 | 8.89° C | 62% | 990 hPa | - | - | - | - |
| 1788494923 | 8.33° C | 61% | 990.2 hPa | - | - | - | - |
| 1788494022 | 8.33° C | 59% | 990.2 hPa | - | - | - | - |
| 1788493122 | 8.89° C | 59% | 990.1 hPa | - | - | - | - |
| 1788492222 | 8.89° C | 59% | 990 hPa | - | - | - | - |
| 1788491322 | 8.89° C | 59% | 990.1 hPa | - | - | - | - |
| 1788490422 | 8.89° C | 59% | 990.3 hPa | - | - | - | - |
| 1788489522 | 8.89° C | 59% | 990.3 hPa | - | - | - | - |
| 1788488622 | 9.44° C | 59% | 990.4 hPa | - | - | - | - |
| 1788487747 | 9.44° C | 58% | 990.5 hPa | - | - | - | - |
| 1788486822 | 9.44° C | 58% | 990.7 hPa | - | - | - | - |
* Rain since midnight (hover to see other rain measurements)
** Current wind speed in m/s (hover to see current wind gust speed)